Weather in Port Elizabeth

South Africa     33˚55′00″S   25˚34′14″E
temp.,
°C
wind,
m/s
gust,
m/s
humid.,
%
clouds,
%
prec.,
mm/h
press.,
hPa
HPBL,
m
29 november, sun
sun2923:00+17˚sw368756 0.6 1018361
02:00+16˚wsw488448 1.3 1018547
05:00+16˚wsw59849 0.1 1018599
08:00+19˚wsw58665 0.1 1019918
11:00+21˚sw67510 0.0 10181048
14:00+21˚ssw66600 0.0 1015754
17:00+20˚s45630 0.0 1014783
20:00+16˚s12730 0.0 1015340
30 november, mon
mon3023:00+15˚n12760 0.0 1015121
02:00+14˚nnw11800 0.0 101253
05:00+14˚nnw12860 0.0 101156
08:00+20˚nne23610 0.0 1011470
11:00+21˚sw79550 0.0 1010685
14:00+21˚sw810570 0.0 1009830
17:00+19˚sw811691 0.0 1010960
20:00+18˚wsw797230 0.0 10121055
1 december, tue
tue123:00+16˚w597834 0.1 1014774
02:00+17˚w6107464 0.2 10121048
05:00+17˚wsw8127876 0.4 10121153
08:00+19˚wsw11156052 0.4 10141390
11:00+20˚wsw1114571 0.0 10141427
14:00+20˚wsw1115590 0.0 10131356
17:00+19˚sw1115631 0.1 10141533
20:00+18˚sw812693 0.3 10171317
2 december, wed
wed223:00+17˚wsw7107510 0.1 1019968
02:00+17˚sw697546 0.8 1018886
05:00+16˚sw587183 0.3 1019804
08:00+17˚sw576375 0.7 10211326
11:00+19˚ssw665435 0.2 10211406
14:00+19˚ssw675527 0.3 10201296
17:00+18˚s56606 0.0 10201159
20:00+17˚se456443 0.1 1022784
3 december, thu
thu323:00+16˚ese4567100 0.1 1022686
02:00+15˚ene467483 0.3 1021568
05:00+14˚ne467944 0.1 1020439
08:00+18˚ene796622 0.1 10191101
11:00+21˚e78540 0.0 10161107
14:00+21˚e1013630 0.0 1013829
17:00+20˚e1014740 0.0 1011758
20:00+19˚ene914810 0.0 1012672